• In Romania
  • List of Countries
  • For 7 days
  • Water Temperature
  • Satellite Maps
  • Weather Map
  • Weather Widgets
  • user-avatar
    Login

    Hourly Weather Wiktoria

    Today, 28 March, Tuesday

    Time Temperature Precipitation Wind Pressure Humidity
    00:00 +15°C° 0 mm 1 mps 748 mmHg 74%
    01:00 +13°C° 0 mm 0 mps 748 mmHg 76%
    02:00 +13°C° 0 mm 0 mps 748 mmHg 76%
    03:00 +14°C° 0 mm 1 mps 748 mmHg 76%
    04:00 +13°C° 0 mm 1 mps 748 mmHg 76%
    05:00 +13°C° 0 mm 1 mps 748 mmHg 77%
    06:00 +13°C° 0 mm 1 mps 749 mmHg 77%
    07:00 +13°C° 0 mm 1 mps 749 mmHg 77%
    08:00 +16°C° 0 mm 1 mps 749 mmHg 67%
    09:00 +20°C° 0 mm 1 mps 749 mmHg 56%
    10:00 +22°C° 0 mm 1 mps 749 mmHg 45%
    11:00 +24°C° 0 mm 1 mps 749 mmHg 40%
    12:00 +25°C° 0 mm 1 mps 748 mmHg 35%
    13:00 +26°C° 0 mm 1 mps 748 mmHg 29%
    14:00 +27°C° 0 mm 1 mps 747 mmHg 29%
    15:00 +27°C° 0 mm 1 mps 747 mmHg 28%
    16:00 +27°C° 0 mm 1 mps 747 mmHg 28%
    17:00 +24°C° 0 mm 1 mps 747 mmHg 36%
    18:00 +21°C° 0 mm 1 mps 747 mmHg 44%
    19:00 +18°C° 0 mm 1 mps 747 mmHg 53%
    20:00 +18°C° 0 mm 1 mps 747 mmHg 56%
    21:00 +16°C° 0 mm 1 mps 747 mmHg 60%
    22:00 +14°C° 0 mm 0 mps 747 mmHg 64%
    23:00 +13°C° 0 mm 0 mps 747 mmHg 67%

    Tomorrow, 29 March, Wednesday

    Time Temperature Precipitation Wind Pressure Humidity
    00:00 +12°C° 0 mm 0 mps 747 mmHg 71%
    01:00 +12°C° 0 mm 0 mps 747 mmHg 75%
    02:00 +12°C° 0 mm 0 mps 747 mmHg 74%
    03:00 +12°C° 0 mm 0 mps 746 mmHg 73%
    04:00 +12°C° 0 mm 0 mps 746 mmHg 72%
    05:00 +13°C° 0 mm 1 mps 746 mmHg 68%
    06:00 +14°C° 0 mm 1 mps 746 mmHg 65%
    07:00 +15°C° 0 mm 1 mps 746 mmHg 62%
    08:00 +19°C° 0 mm 1 mps 747 mmHg 53%
    09:00 +21°C° 0 mm 2 mps 747 mmHg 45%
    10:00 +25°C° 0 mm 2 mps 747 mmHg 37%
    11:00 +26°C° 0 mm 2 mps 746 mmHg 33%
    12:00 +28°C° 0 mm 2 mps 746 mmHg 30%
    13:00 +29°C° 0 mm 3 mps 745 mmHg 26%
    14:00 +30°C° 0 mm 3 mps 744 mmHg 26%
    15:00 +30°C° 0 mm 3 mps 743 mmHg 25%
    16:00 +30°C° 0 mm 3 mps 743 mmHg 24%
    17:00 +27°C° 0 mm 2 mps 743 mmHg 31%
    18:00 +25°C° 0 mm 2 mps 743 mmHg 37%
    19:00 +22°C° 0 mm 1 mps 744 mmHg 43%
    20:00 +21°C° 0 mm 2 mps 744 mmHg 50%
    21:00 +20°C° 0 mm 2 mps 745 mmHg 57%
    22:00 +19°C° 0 mm 3 mps 746 mmHg 63%
    23:00 +18°C° 0.1 mm 3 mps 747 mmHg 65%

    Day after tomorrow, 30 March, Thursday

    Time Temperature Precipitation Wind Pressure Humidity
    00:00 +16°C° 0.1 mm 3 mps 747 mmHg 67%
    01:00 +14°C° 0.1 mm 3 mps 747 mmHg 69%
    02:00 +13°C° 0 mm 3 mps 748 mmHg 69%
    03:00 +14°C° 0 mm 2 mps 748 mmHg 70%
    04:00 +14°C° 0 mm 2 mps 748 mmHg 70%
    05:00 +13°C° 0 mm 2 mps 748 mmHg 72%
    06:00 +12°C° 0 mm 2 mps 749 mmHg 73%
    07:00 +12°C° 0 mm 2 mps 750 mmHg 75%
    08:00 +13°C° 0 mm 2 mps 750 mmHg 67%
    09:00 +13°C° 0 mm 3 mps 751 mmHg 59%
    10:00 +16°C° 0 mm 3 mps 751 mmHg 50%
    11:00 +17°C° 0 mm 3 mps 751 mmHg 46%
    12:00 +18°C° 0 mm 3 mps 750 mmHg 41%
    13:00 +19°C° 0 mm 3 mps 750 mmHg 37%
    14:00 +19°C° 0 mm 3 mps 750 mmHg 37%
    15:00 +19°C° 0 mm 3 mps 750 mmHg 38%
    16:00 +19°C° 0 mm 3 mps 750 mmHg 38%
    17:00 +17°C° 0 mm 3 mps 751 mmHg 45%
    18:00 +16°C° 0 mm 3 mps 752 mmHg 51%
    19:00 +14°C° 0 mm 2 mps 752 mmHg 57%
    20:00 +14°C° 0 mm 2 mps 753 mmHg 61%
    21:00 +13°C° 0 mm 2 mps 754 mmHg 66%
    22:00 +12°C° 0 mm 2 mps 754 mmHg 70%
    23:00 +12°C° 0 mm 1 mps 754 mmHg 73%

    31 March, Friday

    Time Temperature Precipitation Wind Pressure Humidity
    00:00 +11°C° 0 mm 1 mps 754 mmHg 75%
    01:00 +10°C° 0 mm 1 mps 754 mmHg 77%
    02:00 +10°C° 0 mm 1 mps 754 mmHg 80%
    03:00 +9°C° 0 mm 1 mps 754 mmHg 83%
    04:00 +9°C° 0 mm 1 mps 754 mmHg 86%
    05:00 +9°C° 0 mm 1 mps 754 mmHg 87%
    06:00 +9°C° 0 mm 1 mps 754 mmHg 87%
    07:00 +8°C° 0 mm 1 mps 755 mmHg 88%
    08:00 +11°C° 0 mm 1 mps 755 mmHg 74%
    09:00 +14°C° 0 mm 1 mps 755 mmHg 60%
    10:00 +18°C° 0 mm 1 mps 755 mmHg 46%
    11:00 +19°C° 0 mm 1 mps 754 mmHg 41%
    12:00 +21°C° 0 mm 1 mps 754 mmHg 35%
    13:00 +22°C° 0 mm 1 mps 753 mmHg 29%
    14:00 +22°C° 0 mm 1 mps 752 mmHg 29%
    15:00 +22°C° 0 mm 1 mps 752 mmHg 29%
    16:00 +23°C° 0 mm 1 mps 751 mmHg 29%
    17:00 +20°C° 0 mm 1 mps 752 mmHg 37%
    18:00 +18°C° 0 mm 1 mps 752 mmHg 44%
    19:00 +15°C° 0 mm 1 mps 752 mmHg 52%
    20:00 +14°C° 0 mm 1 mps 752 mmHg 56%
    21:00 +13°C° 0 mm 1 mps 753 mmHg 61%
    22:00 +13°C° 0 mm 1 mps 753 mmHg 66%
    23:00 +12°C° 0 mm 1 mps 753 mmHg 69%

    1 April, Saturday

    Time Temperature Precipitation Wind Pressure Humidity
    00:00 +11°C° 0 mm 1 mps 752 mmHg 73%
    01:00 +11°C° 0 mm 1 mps 752 mmHg 76%
    02:00 +10°C° 0 mm 1 mps 752 mmHg 78%
    03:00 +10°C° 0 mm 1 mps 752 mmHg 80%
    04:00 +9°C° 0 mm 1 mps 752 mmHg 82%
    05:00 +9°C° 0 mm 1 mps 753 mmHg 82%
    06:00 +9°C° 0 mm 1 mps 753 mmHg 83%
    07:00 +9°C° 0 mm 1 mps 753 mmHg 83%
    08:00 +12°C° 0 mm 1 mps 753 mmHg 71%
    09:00 +15°C° 0 mm 1 mps 754 mmHg 58%
    10:00 +17°C° 0 mm 2 mps 754 mmHg 46%
    11:00 +19°C° 0 mm 2 mps 754 mmHg 45%
    12:00 +20°C° 0 mm 2 mps 753 mmHg 43%
    13:00 +21°C° 0 mm 2 mps 753 mmHg 42%
    14:00 +21°C° 0 mm 2 mps 753 mmHg 44%
    15:00 +20°C° 0 mm 2 mps 753 mmHg 46%
    16:00 +20°C° 0 mm 3 mps 753 mmHg 48%
    17:00 +18°C° 0 mm 2 mps 754 mmHg 52%
    18:00 +16°C° 0 mm 2 mps 755 mmHg 56%
    19:00 +15°C° 0 mm 2 mps 755 mmHg 61%
    20:00 +14°C° 0 mm 2 mps 756 mmHg 65%
    21:00 +13°C° 0 mm 2 mps 757 mmHg 68%
    22:00 +11°C° 0 mm 1 mps 757 mmHg 72%
    23:00 +11°C° 0 mm 1 mps 757 mmHg 74%

    2 April, Sunday

    Time Temperature Precipitation Wind Pressure Humidity
    00:00 +11°C° 0 mm 1 mps 757 mmHg 76%
    01:00 +10°C° 0 mm 1 mps 757 mmHg 79%
    02:00 +10°C° 0 mm 1 mps 758 mmHg 80%
    03:00 +10°C° 0 mm 1 mps 758 mmHg 82%
    04:00 +10°C° 0 mm 1 mps 758 mmHg 84%
    05:00 +10°C° 0 mm 1 mps 758 mmHg 85%
    06:00 +9°C° 0 mm 1 mps 759 mmHg 87%
    07:00 +9°C° 0 mm 1 mps 759 mmHg 88%
    08:00 +12°C° 0 mm 1 mps 759 mmHg 75%
    09:00 +14°C° 0 mm 2 mps 760 mmHg 61%
    10:00 +17°C° 0 mm 2 mps 760 mmHg 48%
    11:00 +18°C° 0 mm 2 mps 760 mmHg 43%
    12:00 +19°C° 0 mm 2 mps 759 mmHg 38%
    13:00 +21°C° 0 mm 2 mps 759 mmHg 33%
    14:00 +21°C° 0 mm 2 mps 759 mmHg 34%
    15:00 +21°C° 0 mm 2 mps 759 mmHg 34%
    16:00 +21°C° 0 mm 2 mps 758 mmHg 35%
    17:00 +19°C° 0 mm 2 mps 759 mmHg 41%
    18:00 +18°C° 0 mm 2 mps 759 mmHg 47%
    19:00 +16°C° 0 mm 2 mps 760 mmHg 53%
    20:00 +15°C° 0 mm 2 mps 760 mmHg 57%
    21:00 +14°C° 0 mm 2 mps 761 mmHg 61%
    22:00 +13°C° 0 mm 2 mps 761 mmHg 64%
    23:00 +12°C° 0 mm 2 mps 761 mmHg 68%
    Show more